Theta_e
304 303 303 304 303 303 305 305 305 305 303 301 301 301 300 299 298 298 297 295 291 288 287 288 287 287 288 288 288 288 288 289 289 290 291 292 292 292
304 304 304 304 304 304 304 302 302 302 303 301 300 300 300 298 297 297 295 294 291 289 288 287 286 286 287 287 287 287 287 288 288 289 290 290 291 291
304 304 304 303 301 298 297 298 300 301 300 299 300 298 298 298 296 296 294 293 291 289 288 285 285 285 286 286 286 286 286 287 287 288 289 289 289 290
298 297 296 296 295 295 296 297 299 298 300 298 298 296 297 297 295 294 293 291 290 290 288 285 284 285 285 285 285 285 285 286 286 287 286 286 286 287
296 295 294 295 297 297 296 296 297 297 296 297 295 294 295 295 294 293 292 291 290 289 287 284 284 284 284 284 284 284 285 284 282 283 283 283 283 284
300 299 298 297 296 297 297 297 296 295 294 294 295 293 292 293 292 292 291 290 290 289 286 284 284 284 284 283 284 283 282 281 281 281 280 281 281 282
297 296 296 296 296 296 295 294 292 292 292 294 294 292 291 291 291 291 291 290 289 288 286 284 285 284 284 283 282 283 281 280 280 279 279 279 278 279
297 298 297 296 296 294 292 291 291 290 290 291 293 291 290 290 290 289 289 289 288 287 286 285 285 284 283 283 282 282 282 280 279 279 278 278 279 279
296 297 295 294 293 292 291 289 287 287 290 290 290 290 289 288 288 288 288 289 289 287 286 284 284 284 283 282 281 281 280 279 279 278 278 278 279 279
294 294 293 291 290 290 289 288 288 286 286 288 289 289 289 289 287 287 287 287 288 287 285 284 283 283 282 281 280 280 280 280 278 277 278 279 280 279
294 293 291 289 287 286 286 287 287 287 286 285 287 289 287 287 287 285 285 286 287 286 285 284 283 282 281 281 280 279 279 279 277 277 277 280 280 279
294 292 290 290 288 288 288 289 288 287 287 287 286 286 286 284 283 284 286 286 286 285 284 284 283 282 280 280 279 279 278 278 278 277 277 279 280 280
295 294 292 290 289 288 287 283 284 285 286 287 286 283 281 280 281 282 286 285 286 285 285 282 283 281 282 281 279 279 278 278 279 278 276 276 278 279
295 294 291 290 289 286 284 283 285 285 283 281 281 280 280 280 281 282 284 285 285 285 284 282 282 281 281 281 280 280 278 277 278 278 277 277 277 278
294 293 291 289 289 288 287 284 284 285 282 281 281 281 281 281 280 280 281 282 284 283 282 281 281 281 281 282 281 281 279 278 278 278 277 277 277 277
292 291 290 288 288 287 284 284 286 281 280 281 282 282 281 281 279 279 279 279 279 279 279 279 279 279 281 281 281 280 279 278 278 277 277 277 277 277
291 290 288 287 286 286 285 285 282 280 281 282 282 282 282 280 280 279 279 279 280 279 278 278 277 278 280 280 280 279 278 278 278 277 277 277 277 277
292 289 288 287 286 286 285 285 282 280 280 282 282 282 281 280 281 280 280 280 281 280 280 278 277 277 278 278 279 278 278 278 278 277 275 277 277 278
290 289 288 287 285 284 284 284 283 280 281 281 282 282 282 281 281 281 281 281 281 281 281 280 279 278 278 279 279 277 277 278 277 277 277 277 277 277
289 289 288 287 284 283 283 283 282 281 281 281 282 282 282 281 281 281 280 280 281 281 280 280 279 279 279 280 280 280 279 278 277 277 277 277 277 276
289 288 287 286 284 284 283 283 282 282 282 281 281 281 281 281 281 281 281 280 280 280 279 279 279 278 278 278 279 280 279 277 276 275 277 277 277 276
289 288 287 286 285 284 283 283 282 282 282 281 281 281 281 281 281 281 281 281 280 280 279 279 279 278 278 278 277 277 278 278 277 276 275 274 274 276
289 288 287 286 284 284 283 283 282 282 282 281 281 280 280 281 280 281 280 280 280 280 280 279 279 278 278 277 276 277 278 277 277 277 276 275 275 274
Wind_Speed
20 22 23 24 25 23 21 23 22 16 21 18 15 20 22 21 18 16 16 14 9 6 5 4 4 3 2 5 7 7 6 5 4 4 4 9 9 10
14 16 20 22 24 25 26 18 18 10 10 15 20 21 23 21 18 20 18 14 12 9 5 4 3 2 3 4 6 7 7 7 7 7 8 10 12 13
16 15 16 14 14 12 13 15 16 22 17 8 14 20 22 19 17 15 16 18 15 9 5 3 2 1 5 5 7 8 10 10 11 11 11 13 17 18
11 11 12 11 14 13 17 22 25 24 24 16 16 23 24 19 16 13 12 14 11 10 7 5 1 3 4 4 6 8 11 13 12 13 12 11 12 13
10 12 12 13 14 16 17 18 20 22 21 21 16 21 21 17 15 11 13 18 14 12 10 1 2 1 3 4 6 9 11 12 13 13 12 10 8 9
13 13 13 13 14 15 14 13 11 16 19 21 23 17 19 15 17 18 17 16 14 15 10 5 2 4 8 7 7 10 11 11 12 11 10 11 10 9
11 13 14 14 15 17 16 13 15 15 12 14 25 20 21 20 20 21 18 14 13 13 8 4 1 1 4 7 12 12 11 12 10 8 10 13 16 15
13 13 13 12 13 14 13 16 11 17 16 20 18 21 20 19 14 19 19 21 17 14 9 8 7 10 7 12 13 12 13 12 10 8 8 11 15 20
12 9 12 8 10 11 11 14 15 15 19 20 17 18 15 15 21 16 15 15 18 12 10 12 11 12 10 10 11 10 12 14 13 9 7 9 12 18
12 11 6 8 6 8 9 13 14 15 18 17 19 18 19 22 16 20 21 21 15 14 12 12 13 11 12 11 11 10 10 10 9 8 6 8 9 12
12 13 11 8 7 8 8 9 11 12 13 16 18 17 13 14 19 22 19 17 18 16 16 13 14 13 10 11 10 9 5 6 7 6 4 6 8 10
13 14 14 10 10 10 11 10 9 10 11 11 12 11 14 19 21 26 20 14 17 16 18 18 12 12 8 10 9 5 3 5 6 7 4 4 6 9
13 13 12 10 10 10 10 9 9 10 11 12 11 12 14 18 22 24 24 18 16 14 6 22 12 10 5 6 6 5 5 2 3 4 5 3 4 4
13 13 11 11 11 12 12 13 12 11 10 10 10 11 12 16 20 22 21 18 16 11 9 15 12 10 11 6 6 3 2 4 4 3 2 0 3 4
15 13 10 12 13 14 15 14 14 12 10 11 11 9 10 11 13 17 18 20 19 15 12 12 15 12 11 9 11 6 3 0 2 1 2 2 2 1
17 14 12 13 13 14 16 17 16 14 12 12 11 12 11 8 10 11 12 13 12 11 10 12 16 14 17 11 6 6 6 3 3 4 4 1 2 6
19 17 17 18 18 18 18 17 17 16 17 15 15 14 11 11 9 8 8 7 6 6 9 11 13 16 18 16 13 9 7 9 10 6 6 3 5 9
21 21 21 20 19 18 17 18 20 20 18 18 17 15 11 13 10 8 8 7 7 4 4 6 12 12 11 9 9 9 9 8 7 5 6 7 5 12
25 24 23 22 21 20 18 18 20 21 17 18 19 17 13 12 16 13 13 13 12 11 9 6 6 8 7 5 6 10 8 8 10 6 2 3 6 12
26 27 26 23 21 21 20 19 18 18 19 20 21 21 20 18 19 17 16 15 14 14 13 12 8 7 9 11 14 11 11 15 13 7 5 9 11 11
30 29 27 23 23 22 22 20 21 20 23 23 24 24 23 24 22 21 17 16 17 16 16 16 12 11 16 16 14 14 12 12 16 13 13 14 15 11
30 30 27 24 24 24 25 25 25 25 25 25 26 25 27 26 24 22 22 19 19 19 15 16 16 18 20 19 14 7 11 10 10 11 13 14 14 9
31 30 28 25 24 23 27 28 29 29 29 27 26 27 26 24 26 21 21 22 19 20 19 17 18 18 18 18 12 11 13 14 14 15 12 10 10 10
Wind_Direction
221 224 236 241 233 235 253 261 258 233 213 214 217 208 221 240 250 259 266 265 281 285 273 271 268 248 247 297 315 318 321 336 354 351 13 32 18 8
212 223 238 241 248 255 255 249 231 241 222 226 224 220 221 230 243 261 270 278 289 281 295 296 283 261 246 285 301 316 324 322 327 322 319 316 317 323
218 224 231 234 244 243 229 222 225 228 232 254 211 198 200 214 222 239 272 275 278 281 311 322 317 254 246 298 315 338 332 338 338 326 314 310 314 315
213 216 220 220 225 228 227 229 237 242 239 207 193 192 212 231 221 246 258 270 268 290 312 319 296 249 276 317 334 332 343 341 332 326 327 323 320 324
218 212 209 218 227 234 236 240 244 237 231 214 207 202 216 219 218 241 217 219 251 281 305 330 68 356 12 316 328 351 352 349 351 347 344 339 331 327
216 222 222 220 226 246 245 237 230 223 221 209 221 212 223 211 216 191 208 233 249 275 290 291 350 29 14 331 344 19 14 3 356 357 4 4 4 354
213 223 236 239 235 234 234 227 212 205 224 213 212 197 200 212 215 207 221 245 230 254 279 251 212 288 341 322 335 359 14 5 10 32 42 36 41 37
226 239 246 241 235 228 228 226 237 206 196 197 207 194 197 218 223 201 224 218 217 247 266 194 211 207 256 295 304 332 9 22 21 35 50 56 52 44
241 234 248 235 225 215 214 222 222 210 202 198 186 185 186 192 220 193 222 240 237 238 214 193 223 244 263 286 294 334 0 3 18 28 48 51 55 54
243 258 235 235 215 207 201 213 216 215 210 210 215 225 213 227 203 216 217 231 225 206 200 209 222 247 265 283 294 309 323 341 1 15 26 46 64 58
236 247 245 237 214 205 204 208 208 210 209 205 208 218 222 223 223 220 216 226 218 211 211 222 213 224 245 264 279 308 332 349 5 24 58 71 66 58
230 240 237 229 219 225 233 229 224 215 210 213 214 216 223 224 212 206 208 221 233 237 238 213 214 222 232 247 280 276 331 16 42 49 94 112 85 79
235 239 239 228 220 219 218 221 215 208 212 219 217 217 210 205 205 204 209 213 219 223 234 201 215 220 209 230 288 299 225 260 47 40 91 95 189 207
244 241 230 218 218 216 220 222 225 221 224 217 212 199 195 201 206 205 209 207 212 230 228 203 204 208 194 243 258 284 280 178 209 297 314 112 105 40
242 243 224 220 223 223 226 225 223 219 217 212 206 197 212 199 205 212 212 215 223 233 234 211 213 197 190 222 232 248 245 238 196 189 290 345 159 359
234 231 223 227 226 227 226 221 220 220 220 205 193 213 223 210 194 181 189 201 211 217 215 205 210 214 201 198 219 242 248 242 240 233 235 331 326 258
229 228 219 218 221 228 225 220 213 208 214 188 200 218 228 201 186 180 175 186 193 202 202 195 197 199 206 213 212 234 225 231 252 266 193 211 303 307
230 227 224 225 228 230 225 216 209 212 208 191 200 217 221 179 184 184 177 176 189 241 236 202 196 197 198 193 201 212 221 236 265 263 224 217 254 286
227 227 230 228 226 228 226 220 214 210 204 195 197 208 204 189 191 201 191 193 192 213 235 256 221 181 174 202 220 231 246 227 255 267 263 290 236 264
228 229 230 230 226 225 220 215 214 204 201 200 201 203 205 200 201 206 203 199 193 201 208 229 242 210 207 240 251 241 240 233 247 225 235 274 267 283
220 224 230 228 225 221 215 215 212 210 210 205 210 205 207 202 205 207 208 214 199 206 205 214 226 217 225 235 247 249 253 252 250 251 237 241 257 263
222 225 228 226 223 217 211 212 214 214 216 213 212 211 211 211 206 213 199 213 216 202 214 219 225 228 236 246 255 242 263 269 265 257 254 256 257 245
223 224 228 226 223 216 209 216 217 215 220 221 219 216 216 213 207 213 209 208 223 221 200 225 232 240 248 247 232 214 254 265 272 279 266 263 267 262